SCP
0 0 0 0 0 0 0 0 0 0 0 0 0 0 0 0 -0 -0 -0 0 0 0 0 -0 -0 0 0
0 0 0 0 0 0 0 0 0 0 0 0 0 0 0 0 0 0 0 0 0 0 0 0 0 0 0
0 0 0 0 0 0 0 0 0 0 0 0 0 0 0 0 0 0 0 0 0 0 0 0 0 0 0
0 0 0 0 0 0 0 0 0 0 0 0 0 0 0 0 0 0 0 0 0 0 0 0 0 0 0
0 0 0 0 0 0 0 0 0 0 0 0 0 0 0 0 0 0 0 0 0 0 0 0 0 0 0
0 0 0 0 0 0 0 0 0 0 0 0 0 0 0 0 0 0 0 0 0 0 0 0 0 0 0
0 0 0 0 0 0 0 0 0 0 0 0 0 0 0 0 0 0 0 0 0 0 0 0 0 0 0
0 0 0 0 0 0 0 0 0 0 0 0 0 0 0 0 0 0 0 0 0 0 0 0 0 0 0
0 0 0 0 0 0 0 0 0 0 0 0 0 0 0 0 0 0 0 0 0 0 0 0 0 0 0
0 0 0 0 0 0 0 0 0 0 0 0 0 0 0 0 0 0 0 0 0 0 0 0 0 0 0
0 0 0 0 0 0 0 0 0 0 0 0 0 0 0 0 0 0 0 0 0 0 0 0 0 0 0
0 0 0 0 0 0 0 0 0 0 0 0 0 0 0 0 0 0 0 0 0 0 0 0 0 0 0
0 0 0 0 0 0 0 0 0 0 0 0 0 0 0 0 0 0 0 0 0 0 0 0 0 0 0
0 0 0 0 0 0 0 0 0 0 0 0 0 0 0 0 0 0 0 0 0 0 0 0 0 0 0
0 0 0 0 0 0 0 0 0 0 0 0 0 0 0 0 0 0 0 0 0 0 0 0 0 0 0
0 0 0 0 0 0 0 0 0 0 0 0 0 0 0 0 0 0 0 0 0 0 0 0 0 0 0
Wind_Speed_500mb
56 52 51 50 51 54 51 48 47 45 42 41 40 38 35 33 30 27 25 27 29 33 34 30 24 20 13
58 53 49 51 57 54 52 49 46 43 37 41 39 37 34 32 29 24 21 26 32 33 33 29 27 22 18
61 56 52 54 55 56 53 49 50 45 45 40 38 37 34 31 26 22 20 26 33 34 34 33 30 25 20
64 60 57 56 57 58 56 53 52 49 45 41 38 34 33 31 26 22 24 29 33 35 36 35 29 25 21
69 64 61 58 55 58 60 57 54 51 45 43 41 40 37 32 25 26 27 32 36 37 35 30 30 26 20
70 67 62 61 58 55 57 59 55 52 48 45 41 38 36 31 28 26 29 32 41 39 32 28 32 28 21
74 70 66 61 57 52 52 55 54 53 50 46 41 39 37 33 28 25 30 31 38 37 36 33 31 30 28
77 73 67 61 56 53 52 54 55 54 51 47 43 42 40 35 30 23 22 26 31 34 35 37 36 33 31
79 73 68 62 57 55 53 53 58 56 51 45 43 45 42 37 32 35 33 31 33 37 39 40 39 37 35
77 71 67 64 61 56 54 57 59 54 52 44 50 45 38 38 41 38 35 35 35 38 41 44 43 41 40
73 73 66 62 62 58 54 56 60 57 52 49 52 46 52 51 49 44 38 36 37 40 43 46 47 47 45
72 72 69 66 61 64 62 61 61 61 58 58 57 55 57 55 52 50 43 41 40 41 44 48 49 52 50
79 79 76 73 70 69 66 64 59 62 64 64 64 62 60 59 58 56 50 46 48 47 44 47 51 55 56
83 79 78 76 73 69 70 64 62 64 69 66 65 69 65 64 61 63 56 53 54 51 52 45 37 54 63
79 78 76 72 68 69 72 72 69 64 66 68 67 65 65 69 68 66 60 58 59 56 60 51 22 31 30
88 87 84 86 81 76 75 80 70 65 65 68 72 71 68 69 72 68 64 64 58 67 65 69 69 39 23
Wind_Direction_500mb
181 179 179 176 167 168 171 168 169 170 169 169 167 166 163 157 150 150 148 149 153 163 162 156 152 162 169
181 180 181 178 171 170 175 171 172 167 171 170 170 168 166 160 160 161 154 154 169 169 166 167 158 173 188
181 180 180 178 173 172 176 176 180 171 180 175 173 171 169 169 165 163 160 160 175 176 171 169 171 189 204
182 182 182 181 176 175 176 179 185 181 180 178 177 174 172 172 170 175 167 170 178 178 174 178 190 198 209
184 184 184 185 185 183 182 183 183 184 181 183 182 179 178 179 185 181 172 170 179 181 188 189 195 210 218
189 188 187 187 189 191 191 187 185 182 185 187 187 185 183 186 190 187 180 175 185 193 200 205 208 220 230
193 192 192 190 192 193 194 187 187 188 189 190 189 191 188 191 198 204 194 189 197 208 210 219 221 227 235
197 197 195 196 196 194 194 192 191 192 193 193 193 191 191 195 199 207 218 217 214 221 225 228 232 237 237
203 203 201 199 199 199 198 197 198 198 196 195 195 192 197 201 198 209 228 224 223 227 231 234 236 237 238
206 207 205 204 203 203 199 200 203 205 204 202 197 196 202 207 209 214 233 228 224 228 232 235 238 238 239
206 209 207 209 208 210 203 202 202 210 206 205 203 204 205 209 216 223 226 234 232 226 229 237 240 242 242
206 208 208 210 212 214 217 214 208 213 209 207 207 208 216 220 221 225 229 234 240 237 232 232 238 243 244
206 209 208 209 211 215 220 221 215 216 216 210 208 211 219 222 229 233 232 234 236 234 233 231 232 237 244
212 212 213 212 212 222 222 223 223 220 219 214 215 216 220 221 228 234 234 233 236 240 231 231 237 243 243
215 215 214 214 219 225 219 223 225 224 222 220 220 222 227 228 228 231 237 235 241 245 244 233 220 232 244
221 220 219 219 218 219 222 226 227 227 225 224 223 224 230 232 236 237 242 242 243 248 244 241 239 250 244
Wind_Speed_850mb
56 52 51 50 51 54 51 48 47 45 42 41 40 38 35 33 30 27 25 27 29 33 34 30 24 20 13
58 53 49 51 57 54 52 49 46 43 37 41 39 37 34 32 29 24 21 26 32 33 33 29 27 22 18
61 56 52 54 55 56 53 49 50 45 45 40 38 37 34 31 26 22 20 26 33 34 34 33 30 25 20
64 60 57 56 57 58 56 53 52 49 45 41 38 34 33 31 26 22 24 29 33 35 36 35 29 25 21
69 64 61 58 55 58 60 57 54 51 45 43 41 40 37 32 25 26 27 32 36 37 35 30 30 26 20
70 67 62 61 58 55 57 59 55 52 48 45 41 38 36 31 28 26 29 32 41 39 32 28 32 28 21
74 70 66 61 57 52 52 55 54 53 50 46 41 39 37 33 28 25 30 31 38 37 36 33 31 30 28
77 73 67 61 56 53 52 54 55 54 51 47 43 42 40 35 30 23 22 26 31 34 35 37 36 33 31
79 73 68 62 57 55 53 53 58 56 51 45 43 45 42 37 32 35 33 31 33 37 39 40 39 37 35
77 71 67 64 61 56 54 57 59 54 52 44 50 45 38 38 41 38 35 35 35 38 41 44 43 41 40
73 73 66 62 62 58 54 56 60 57 52 49 52 46 52 51 49 44 38 36 37 40 43 46 47 47 45
72 72 69 66 61 64 62 61 61 61 58 58 57 55 57 55 52 50 43 41 40 41 44 48 49 52 50
79 79 76 73 70 69 66 64 59 62 64 64 64 62 60 59 58 56 50 46 48 47 44 47 51 55 56
83 79 78 76 73 69 70 64 62 64 69 66 65 69 65 64 61 63 56 53 54 51 52 45 37 54 63
79 78 76 72 68 69 72 72 69 64 66 68 67 65 65 69 68 66 60 58 59 56 60 51 22 31 30
88 87 84 86 81 76 75 80 70 65 65 68 72 71 68 69 72 68 64 64 58 67 65 69 69 39 23
Wind_Direction_850mb
181 179 179 176 167 168 171 168 169 170 169 169 167 166 163 157 150 150 148 149 153 163 162 156 152 162 169
181 180 181 178 171 170 175 171 172 167 171 170 170 168 166 160 160 161 154 154 169 169 166 167 158 173 188
181 180 180 178 173 172 176 176 180 171 180 175 173 171 169 169 165 163 160 160 175 176 171 169 171 189 204
182 182 182 181 176 175 176 179 185 181 180 178 177 174 172 172 170 175 167 170 178 178 174 178 190 198 209
184 184 184 185 185 183 182 183 183 184 181 183 182 179 178 179 185 181 172 170 179 181 188 189 195 210 218
189 188 187 187 189 191 191 187 185 182 185 187 187 185 183 186 190 187 180 175 185 193 200 205 208 220 230
193 192 192 190 192 193 194 187 187 188 189 190 189 191 188 191 198 204 194 189 197 208 210 219 221 227 235
197 197 195 196 196 194 194 192 191 192 193 193 193 191 191 195 199 207 218 217 214 221 225 228 232 237 237
203 203 201 199 199 199 198 197 198 198 196 195 195 192 197 201 198 209 228 224 223 227 231 234 236 237 238
206 207 205 204 203 203 199 200 203 205 204 202 197 196 202 207 209 214 233 228 224 228 232 235 238 238 239
206 209 207 209 208 210 203 202 202 210 206 205 203 204 205 209 216 223 226 234 232 226 229 237 240 242 242
206 208 208 210 212 214 217 214 208 213 209 207 207 208 216 220 221 225 229 234 240 237 232 232 238 243 244
206 209 208 209 211 215 220 221 215 216 216 210 208 211 219 222 229 233 232 234 236 234 233 231 232 237 244
212 212 213 212 212 222 222 223 223 220 219 214 215 216 220 221 228 234 234 233 236 240 231 231 237 243 243
215 215 214 214 219 225 219 223 225 224 222 220 220 222 227 228 228 231 237 235 241 245 244 233 220 232 244
221 220 219 219 218 219 222 226 227 227 225 224 223 224 230 232 236 237 242 242 243 248 244 241 239 250 244